Regional Weather Roundup
Issued by NWS

Home | Current Version | Previous Version | Text Only | Print | Product List | Glossary Off
Versions: 1 2 3 4 5 6 7 8 9 10 11 12 13 14 15 16 17 18 19 20 21 22 23 24 25 26 27 28 29 30 31 32 33 34 35 36 37 38 39 40 41 42 43 44 45 46 47 48 49 50

000
ASUS45 KABQ 232210
RWRNM
NEW MEXICO REGIONAL WEATHER ROUNDUP
NATIONAL WEATHER SERVICE ALBUQUERQUE NM
400 PM MDT TUE AUG 23 2016

NOTE: "FAIR" MEANS FEW OR NO CLOUDS BELOW 12,000 FEET AGL WITH NO
       SIGNIFICANT WEATHER OR OBSTRUCTIONS TO VISION.

      THIS PRODUCT IS RELEASED AS TWO VERSIONS.  ONE VERSION NEAR
      THE TOP OF THE HOUR CONTAINING PRELIMINARY DATA FROM ALBUQUERQUE
      AND OTHER STATIONS.  A FINAL VERSION WITH ADDITIONAL DATA IS
      ISSUED ABOUT 10 MINUTES AFTER THE HOUR.

NMZ501-503-504-510>518-232300-
NORTHWEST PLATEAU/NORTHCENTRAL MOUNTAINS

CITY           SKY/WX    TMP DP  RH WIND       PRES   REMARKS
FARMINGTON     FAIR      65  52  62 W12       30.19R
LOS ALAMOS     LGT RAIN  64  50  58 W18G29    30.28R
SANTA FE       FAIR      77  47  34 W23G30    30.21S
TAOS           FAIR      75  43  31 W10G24    30.23
ANGEL FIRE     FAIR      67  37  32 W9G17     30.32F

$$
NMZ402-403-502-505>509-232300-
WESTCENTRAL MOUNTAINS/SOUTHWEST MOUNTAINS

CITY           SKY/WX    TMP DP  RH WIND       PRES   REMARKS
GALLUP         FAIR      68  49  50 SW12      30.27F
GRANTS         FAIR      75  41  29 W8        30.26F
SILVER CITY    FAIR      83  42  23 W15G28    30.18F

$$
NMZ407-409-411-412-232300-
SOUTHERN DESERTS

CITY           SKY/WX    TMP DP  RH WIND       PRES   REMARKS
LORDSBURG      PTSUNNY   86  43  22 W18G26    30.10F
DEMING         FAIR      89  47  23 W14G23    30.09F
LAS CRUCES     FAIR      89  46  22 W15       30.10F
HOLLOMAN AFB   PTSUNNY   88  55  32 SE9       30.04F
ALAMOGORDO     FAIR      84  55  37 E3        30.08F
T OR C         PTSUNNY   86  44  23 VRB3      30.09F

$$
NMZ519>523-232300-
CENTRAL VALLEYS/CENTRAL HIGHLANDS

CITY           SKY/WX    TMP DP  RH WIND       PRES   REMARKS
ALBUQUERQUE    FAIR      79  47  32 SW6       30.16F
DOUBLE EAGLE   PTSUNNY   81  48  32 W14G20    30.20F
MORIARTY ARPT  FAIR      80  40  24 W14       30.21S
CLINES CORNERS FAIR      77  41  27 W17       30.25F
BELEN          FAIR      82  41  23 N8G16     30.14F
SOCORRO        PTSUNNY   89  42  19 NW7       30.09F

$$
NMZ524>526-539-540-232300-
SOUTHCENTRAL MOUNTAINS

CITY           SKY/WX    TMP DP  RH WIND       PRES   REMARKS
RUIDOSO          N/A     77  45  31 SW10G18   30.27F

$$
NMZ527>531-232300-
NORTHEAST HIGHLANDS/NORTHEAST PLAINS

CITY           SKY/WX    TMP DP  RH WIND       PRES   REMARKS
LAS VEGAS      FAIR      78  34  20 W21G31    30.21S
RATON          FAIR      84  37  18 SW10      30.09F
CLAYTON        FAIR      88  46  23 SW9G18    30.02F

$$
NMZ532>537-232300-
EASTCENTRAL PLAINS

CITY           SKY/WX    TMP DP  RH WIND       PRES   REMARKS
TUCUMCARI      FAIR      95  43  16 W18G25    29.99F
CANNON AFB     FAIR      91  46  21 W16G23    30.04F
CLOVIS AIRPORT FAIR      93  50  22 W16G24    30.04F

$$
NMZ028-029-538-232300-
SOUTHEAST PLAINS

CITY           SKY/WX    TMP DP  RH WIND       PRES   REMARKS
ROSWELL        FAIR      88  60  38 S15       30.03F
ARTESIA        FAIR      86  63  45 S10G17    30.04F
CARLSBAD       PTSUNNY   88  63  43 MISG      30.00F
HOBBS          MOSUNNY   86  59  39 SE18G24   30.07S


$$




USA.gov is the U.S. government's official web portal to all federal, state and local government web resources and services.